Regional Weather Roundup
Issued by NWS

Home | Current Version | Previous Version | Graphics & Text | Print | Product List | Glossary On
Versions: 1 2 3 4 5 6 7 8 9 10 11 12 13 14 15 16 17 18 19 20 21 22 23 24 25 26 27
000
ASUS45 KCYS 192010
RWRWY

WYOMING REGIONAL WEATHER ROUNDUP
NATIONAL WEATHER SERVICE CHEYENNE WY
200 PM MDT TUE SEP 19 2017

NOTE:  "FAIR" INDICATES FEW OR NO CLOUDS BELOW 12,000 FEET
WITH NO SIGNIFICANT WEATHER AND/OR OBSTRUCTIONS TO VISIBILITY.

WYZ001-192100-
YELLOWSTONE NATIONAL PARK

CITY           SKY/WX    TMP DP  RH WIND       PRES   REMARKS
LK YELLOWSTONE   N/A     34  29  82 VRB6      29.82S WCI  29
W YELLOWSTONE  NOT AVBL

$$
WYZ002>013-054>058-071-098>099-192100-
NORTHERN WYOMING

CITY           SKY/WX    TMP DP  RH WIND       PRES   REMARKS
JACKSON        FLURRIES  40  31  70 SW9       29.84R WCI  34
CODY           FAIR      50  39  66 N13G20    29.71S
GREYBULL       PTSUNNY   52  40  63 NW16      29.69S
WORLAND        CLOUDY    49  42  77 N16G26    29.70R
SHERIDAN       LGT RAIN  47  40  76 NW14      29.71R
BUFFALO        LGT RAIN  43  38  82 N15G24    29.71R
GILLETTE       RAIN      47  45  93 NW5       29.66S FOG
HULETT         DRIZZLE   52  46  82 NW12      29.65R
NEWCASTLE      LGT RAIN  55  45  67 W21G26    29.68R

$$
WYZ014>020-022>026-101>103-192100-
CENTRAL WYOMING

CITY           SKY/WX    TMP DP  RH WIND       PRES   REMARKS
BIG PINEY      FAIR      48  28  46 NW16G24   29.88F
PINEDALE       MOCLDY    41  27  56 W15G22    29.87F
DUBOIS         FAIR      41  27  56 W21G31    29.78S
LANDER           N/A    N/A N/A N/A MISG      29.76R
RIVERTON       PTSUNNY   54  25  32 NW12      29.74R
CASPER         LGT RAIN  47  45  93 SW12      29.78R
DOUGLAS        CLOUDY    55  41  59 W37G43    29.77R

$$
WYZ021-027>030-104>119-192100-
SOUTHERN WYOMING

CITY           SKY/WX    TMP DP  RH WIND       PRES   REMARKS
EVANSTON       FLURRIES  37  34  89 SW15      29.98S WCI  28
FORT BRIDGER   LGT RAIN  38  38  99 W22G29    30.00S WCI  28
ROCK SPRINGS   CLOUDY    37  33  85 W24G30    29.94F WCI  26
DIXON          LGT RAIN  42  33  70 N10       29.98S
RAWLINS        LGT SNOW  34  32  92 W16       29.91R VSB 1   WCI  24
SARATOGA       DRIZZLE   43  32  65 W17G23    29.95R
LARAMIE        PTSUNNY   59  34  39 NW30G36   29.78R
CHEYENNE       FAIR      79  15   9 S7G17     29.67F
TORRINGTON     FAIR      77  32  19 NW15      29.55R
PINE BLUFFS    FAIR      82  19   9 S10G21    29.63F

$$




USA.gov is the U.S. government's official web portal to all federal, state and local government web resources and services.